• In Kazakhstan
  • List of Countries
  • For 7 days
  • Water Temperature
  • Satellite Maps
  • Weather Map
  • News
  • Weather Widgets
  • user-avatar
    Login

    Hourly Weather Garbce

    Today, 19 March, Tuesday

    Time Temperature Precipitation Wind Pressure Humidity
    00:00 +3°C° 0 mm 4 mps 756 mmHg 74%
    01:00 +1°C° 0 mm 4 mps 756 mmHg 78%
    02:00 +1°C° 0 mm 4 mps 756 mmHg 80%
    03:00 0°C° 0 mm 4 mps 757 mmHg 81%
    04:00 0°C° 0 mm 4 mps 757 mmHg 83%
    05:00 0°C° 0 mm 4 mps 757 mmHg 84%
    06:00 0°C° 0 mm 4 mps 758 mmHg 85%
    07:00 0°C° 0 mm 5 mps 758 mmHg 85%
    08:00 +1°C° 0 mm 5 mps 759 mmHg 82%
    09:00 +1°C° 0 mm 5 mps 759 mmHg 78%
    10:00 +2°C° 0 mm 5 mps 759 mmHg 74%
    11:00 +3°C° 0 mm 5 mps 760 mmHg 71%
    12:00 +4°C° 0 mm 4 mps 760 mmHg 68%
    13:00 +5°C° 0 mm 4 mps 760 mmHg 65%
    14:00 +5°C° 0 mm 4 mps 760 mmHg 62%
    15:00 +7°C° 0 mm 3 mps 760 mmHg 58%
    16:00 +8°C° 0 mm 3 mps 761 mmHg 55%
    17:00 +7°C° 0 mm 2 mps 761 mmHg 59%
    18:00 +6°C° 0 mm 2 mps 762 mmHg 63%
    19:00 +5°C° 0 mm 1 mps 762 mmHg 67%
    20:00 +4°C° 0 mm 2 mps 763 mmHg 69%
    21:00 +4°C° 0 mm 2 mps 763 mmHg 72%
    22:00 +3°C° 0 mm 2 mps 764 mmHg 74%
    23:00 +2°C° 0 mm 3 mps 764 mmHg 77%

    Tomorrow, 20 March, Wednesday

    Time Temperature Precipitation Wind Pressure Humidity
    00:00 +1°C° 0 mm 3 mps 764 mmHg 79%
    01:00 +1°C° 0 mm 3 mps 765 mmHg 81%
    02:00 0°C° 0 mm 3 mps 765 mmHg 83%
    03:00 0°C° 0 mm 3 mps 765 mmHg 84%
    04:00 -1°C° 0 mm 2 mps 765 mmHg 86%
    05:00 +1°C° 0 mm 2 mps 766 mmHg 84%
    06:00 +1°C° 0 mm 2 mps 766 mmHg 82%
    07:00 +1°C° 0 mm 2 mps 766 mmHg 80%
    08:00 +2°C° 0 mm 3 mps 767 mmHg 73%
    09:00 +4°C° 0 mm 3 mps 767 mmHg 65%
    10:00 +7°C° 0 mm 3 mps 767 mmHg 58%
    11:00 +8°C° 0 mm 3 mps 767 mmHg 53%
    12:00 +9°C° 0 mm 3 mps 767 mmHg 49%
    13:00 +10°C° 0 mm 3 mps 767 mmHg 44%
    14:00 +10°C° 0 mm 3 mps 766 mmHg 44%
    15:00 +10°C° 0 mm 3 mps 766 mmHg 44%
    16:00 +10°C° 0 mm 3 mps 766 mmHg 44%
    17:00 +9°C° 0 mm 3 mps 766 mmHg 49%
    18:00 +8°C° 0 mm 2 mps 766 mmHg 54%
    19:00 +6°C° 0 mm 2 mps 767 mmHg 58%
    20:00 +6°C° 0 mm 2 mps 767 mmHg 60%
    21:00 +6°C° 0 mm 2 mps 767 mmHg 62%
    22:00 +4°C° 0 mm 3 mps 767 mmHg 63%
    23:00 +4°C° 0 mm 3 mps 767 mmHg 65%

    Day after tomorrow, 21 March, Thursday

    Time Temperature Precipitation Wind Pressure Humidity
    00:00 +4°C° 0 mm 3 mps 767 mmHg 66%
    01:00 +4°C° 0 mm 3 mps 767 mmHg 68%
    02:00 +4°C° 0 mm 3 mps 767 mmHg 70%
    03:00 +4°C° 0 mm 3 mps 767 mmHg 72%
    04:00 +4°C° 0 mm 3 mps 767 mmHg 74%
    05:00 +4°C° 0 mm 3 mps 767 mmHg 77%
    06:00 +4°C° 0 mm 3 mps 767 mmHg 79%
    07:00 +5°C° 0 mm 3 mps 768 mmHg 82%
    08:00 +7°C° 0 mm 3 mps 768 mmHg 81%
    09:00 +8°C° 0 mm 3 mps 768 mmHg 80%
    10:00 +9°C° 0 mm 3 mps 768 mmHg 79%
    11:00 +10°C° 0 mm 3 mps 767 mmHg 75%
    12:00 +12°C° 0 mm 3 mps 767 mmHg 70%
    13:00 +13°C° 0 mm 3 mps 767 mmHg 65%
    14:00 +13°C° 0 mm 3 mps 767 mmHg 66%
    15:00 +13°C° 0 mm 3 mps 767 mmHg 67%
    16:00 +13°C° 0 mm 3 mps 766 mmHg 68%
    17:00 +13°C° 0 mm 2 mps 766 mmHg 71%
    18:00 +12°C° 0 mm 2 mps 766 mmHg 74%
    19:00 +12°C° 0 mm 1 mps 766 mmHg 77%
    20:00 +12°C° 0 mm 1 mps 766 mmHg 78%
    21:00 +11°C° 0 mm 1 mps 766 mmHg 78%
    22:00 +11°C° 0 mm 1 mps 766 mmHg 79%
    23:00 +11°C° 0 mm 1 mps 766 mmHg 80%

    22 March, Friday

    Time Temperature Precipitation Wind Pressure Humidity
    00:00 +10°C° 0 mm 2 mps 766 mmHg 81%
    01:00 +10°C° 0 mm 2 mps 766 mmHg 82%
    02:00 +10°C° 0 mm 2 mps 766 mmHg 83%
    03:00 +9°C° 0 mm 2 mps 766 mmHg 84%
    04:00 +9°C° 0 mm 2 mps 765 mmHg 85%
    05:00 +9°C° 0 mm 2 mps 766 mmHg 85%
    06:00 +9°C° 0 mm 2 mps 766 mmHg 85%
    07:00 +9°C° 0 mm 2 mps 766 mmHg 84%
    08:00 +10°C° 0 mm 2 mps 766 mmHg 81%
    09:00 +12°C° 0 mm 2 mps 766 mmHg 78%
    10:00 +12°C° 0 mm 2 mps 766 mmHg 75%
    11:00 +13°C° 0 mm 2 mps 765 mmHg 71%
    12:00 +14°C° 0 mm 2 mps 765 mmHg 66%
    13:00 +15°C° 0 mm 2 mps 764 mmHg 62%
    14:00 +15°C° 0 mm 2 mps 764 mmHg 61%
    15:00 +15°C° 0 mm 2 mps 764 mmHg 60%
    16:00 +16°C° 0 mm 2 mps 763 mmHg 60%
    17:00 +14°C° 0 mm 1 mps 763 mmHg 65%
    18:00 +13°C° 0 mm 1 mps 763 mmHg 70%
    19:00 +12°C° 0 mm 1 mps 763 mmHg 75%
    20:00 +11°C° 0 mm 1 mps 763 mmHg 77%
    21:00 +10°C° 0 mm 2 mps 763 mmHg 79%
    22:00 +9°C° 0 mm 2 mps 763 mmHg 81%
    23:00 +9°C° 0 mm 2 mps 763 mmHg 83%

    23 March, Saturday

    Time Temperature Precipitation Wind Pressure Humidity
    00:00 +9°C° 0 mm 2 mps 763 mmHg 84%
    01:00 +9°C° 0 mm 2 mps 762 mmHg 86%
    02:00 +8°C° 0 mm 2 mps 762 mmHg 85%
    03:00 +8°C° 0 mm 2 mps 762 mmHg 84%
    04:00 +8°C° 0 mm 2 mps 762 mmHg 83%
    05:00 +8°C° 0 mm 2 mps 762 mmHg 81%
    06:00 +8°C° 0 mm 2 mps 762 mmHg 79%
    07:00 +8°C° 0 mm 3 mps 762 mmHg 77%
    08:00 +11°C° 0 mm 3 mps 762 mmHg 73%
    09:00 +13°C° 0 mm 3 mps 762 mmHg 68%
    10:00 +15°C° 0 mm 4 mps 762 mmHg 63%
    11:00 +17°C° 0 mm 4 mps 762 mmHg 60%
    12:00 +18°C° 0 mm 4 mps 762 mmHg 57%
    13:00 +19°C° 0 mm 4 mps 762 mmHg 53%
    14:00 +19°C° 0 mm 4 mps 762 mmHg 53%
    15:00 +19°C° 0 mm 4 mps 761 mmHg 53%
    16:00 +19°C° 0 mm 4 mps 761 mmHg 53%
    17:00 +17°C° 0 mm 3 mps 761 mmHg 60%
    18:00 +14°C° 0 mm 3 mps 761 mmHg 67%
    19:00 +13°C° 0 mm 3 mps 762 mmHg 73%
    20:00 +13°C° 0 mm 2 mps 762 mmHg 76%
    21:00 +13°C° 0 mm 2 mps 762 mmHg 79%
    22:00 +12°C° 0 mm 1 mps 762 mmHg 82%
    23:00 +12°C° 0 mm 1 mps 762 mmHg 83%

    24 March, Sunday

    Time Temperature Precipitation Wind Pressure Humidity
    00:00 +11°C° 0 mm 1 mps 762 mmHg 84%
    01:00 +11°C° 0 mm 1 mps 762 mmHg 86%
    02:00 +10°C° 0 mm 1 mps 761 mmHg 88%
    03:00 +10°C° 0 mm 1 mps 761 mmHg 90%
    04:00 +9°C° 0 mm 1 mps 761 mmHg 92%
    05:00 +10°C° 0 mm 1 mps 760 mmHg 91%
    06:00 +10°C° 0 mm 1 mps 760 mmHg 90%
    07:00 +9°C° 0 mm 2 mps 760 mmHg 89%
    08:00 +12°C° 0 mm 2 mps 759 mmHg 81%
    09:00 +14°C° 0 mm 2 mps 759 mmHg 74%
    10:00 +16°C° 0 mm 2 mps 758 mmHg 66%
    11:00 +17°C° 0 mm 3 mps 758 mmHg 61%
    12:00 +18°C° 0 mm 3 mps 757 mmHg 56%
    13:00 +19°C° 0 mm 4 mps 756 mmHg 52%
    14:00 +19°C° 0.1 mm 4 mps 755 mmHg 53%
    15:00 +19°C° 0.1 mm 5 mps 755 mmHg 54%
    16:00 +19°C° 0.1 mm 5 mps 754 mmHg 54%
    17:00 +16°C° 0.1 mm 5 mps 755 mmHg 60%
    18:00 +14°C° 0.1 mm 5 mps 755 mmHg 65%
    19:00 +13°C° 0.1 mm 5 mps 755 mmHg 71%
    20:00 +10°C° 0 mm 5 mps 755 mmHg 71%
    21:00 +9°C° 0 mm 6 mps 756 mmHg 72%
    22:00 +8°C° 0 mm 7 mps 756 mmHg 73%
    23:00 +7°C° 0 mm 6 mps 756 mmHg 70%
    Show more